Location: Banios
(43.0451°N, 0.2335°E)
Time: 08:39:01
(UTC+00:00)

A-11 Canister half - Pass Details

Date: 14 May 2021
Orbit: 1527 x 1681 km, 47.3° (Epoch: 22 June)

Event Time Altitude Azimuth Distance (km) Brightness Sun altitude
Rises 10:47:42 0° 265° (W) 4,747 11.4 61.8°
Reaches altitude 10° 10:50:45 10° 267° (W) 3,782 11.0 62.1°
Maximum altitude 11:00:24 72° 352° (N) 1,694 10.1 63.1°
Drops below altitude 10° 11:10:24 10° 77° (ENE) 3,906 11.3 63.9°
Sets 11:13:38 0° 79° (E) 4,908 11.7 64.1°
